Location: Pianadetto
(44.4000°N, 10.1000°E)
Time: 01:52:00
(UTC+00:00)

Cosmos 1140 Rocket - Pass Details

Date: 26 May 2022
Orbit: 743 x 767 km, 74.1° (Epoch: 26 June)

Event Time Altitude Azimuth Distance (km) Brightness Sun altitude
Rises 02:56:46 0° 334° (NNW) 3,246 6.9 -7.5°
Reaches altitude 10° 02:59:12 10° 330° (NNW) 2,316 6.1 -7.1°
Maximum altitude 03:04:16 51° 255° (WSW) 963 3.7 -6.4°
Drops below altitude 10° 03:09:18 10° 181° (S) 2,294 5.6 -5.7°
Sets 03:11:42 0° 176° (S) 3,213 6.4 -5.4°
